K1UTS Weather Reports


Display with metric or nautical units.
time (UTC)temp
F
wind
direction
speed
MPH
gust
MPH
rain 1hr
in
rain 24hr
in
rain mn
in
humidity
%
barometer
mb
20260507060014 53 337 0.0 2.0 0.00 0.00 0.00 92 1003.7
20260507054511 54 304 0.0 1.0 0.00 0.00 0.00 92 1003.7
20260507053009 55 279 0.0 1.0 0.00 0.00 0.00 93 1004.0
20260507051508 55 224 0.0 1.0 0.00 0.00 0.00 92 1004.1
20260507050107 55 224 0.0 1.0 0.00 0.00 0.00 93 1004.0
20260507044503 56 250 0.0 1.0 0.00 0.00 0.00 93 1004.1
20260507043100 56 226 0.0 2.0 0.00 0.00 0.00 93 1003.8
20260507041559 57 5 0.0 2.0 0.00 0.00 0.00 93 1003.8
20260507040054 58 242 0.0 3.0 0.00 0.00 0.00 93 1003.9
20260507034554 58 152 0.0 2.0 0.00 0.00 0.00 93 1003.6
20260507033052 58 299 0.0 2.0 0.00 0.00 0.00 93 1003.2
20260507031552 58 174 0.0 2.0 0.00 0.00 0.00 93 1003.1
20260507030052 58 174 0.0 3.0 0.00 0.00 0.00 93 1002.8
20260507024551 58 62 0.0 2.0 0.00 0.00 0.00 93 1002.8
20260507023049 58 177 1.0 8.0 0.00 0.00 0.00 93 1002.7
20260507021549 58 231 1.0 4.0 0.00 0.00 0.00 93 1002.7
20260507014554 58 190 1.0 4.0 0.00 0.00 0.00 93 1002.7
20260507013047 58 119 1.0 5.0 0.00 0.00 0.00 93 1002.7
20260507011547 58 133 2.0 5.0 0.00 0.00 0.00 93 1002.7
20260507010059 58 311 0.0 8.0 0.00 0.00 0.00 92 1002.8
20260507004546 58 234 1.0 6.0 0.00 0.00 0.00 92 1002.8
20260507003044 59 241 1.0 7.0 0.00 0.00 0.00 92 1002.8
20260507001547 59 186 2.0 6.0 0.00 0.00 0.00 92 1002.6
20260507000043 59 207 2.0 7.0 0.00 0.00 0.00 92 1002.6
20260506234542 59 182 0.0 5.0 0.00 0.00 0.00 92 1002.5
20260506233041 59 217 3.0 7.0 0.00 0.00 0.00 92 1002.4
20260506231555 59 194 0.0 5.0 0.00 0.00 0.00 92 1002.3
20260506230053 59 185 3.0 7.0 0.00 0.00 0.00 91 1002.5
20260506224540 59 194 1.0 5.0 0.00 0.00 0.00 91 1002.6
20260506223038 59 200 1.0 9.0 0.00 0.00 0.00 91 1002.6
20260506221540 59 119 2.0 10.0 0.00 0.00 0.00 91 1002.7
20260506220038 60 165 3.0 10.0 0.00 0.00 0.00 91 1002.8
20260506214537 59 162 1.0 8.0 0.00 0.00 0.00 91 1002.9
20260506213033 60 201 3.0 8.0 0.00 0.00 0.00 90 1003.1
20260506211533 60 128 1.0 7.0 0.00 0.00 0.00 90 1003.4
20260506210031 60 41 2.0 12.0 0.00 0.00 0.00 89 1003.4
20260506204533 60 229 2.0 9.0 0.00 0.00 0.00 89 1003.5
20260506203025 61 70 1.0 5.0 0.00 0.00 0.00 88 1003.6
20260506201535 61 193 2.0 7.0 0.00 0.00 0.00 87 1003.5
20260506200023 62 249 2.0 6.0 0.00 0.00 0.00 86 1003.6
20260506194523 63 200 2.0 6.0 0.00 0.00 0.00 85 1003.6
20260506193025 64 183 2.0 5.0 0.00 0.00 0.00 83 1003.6
20260506191520 65 215 1.0 5.0 0.00 0.00 0.00 80 1003.5
20260506190118 66 246 2.0 15.0 0.00 0.00 0.00 75 1003.7
20260506184521 68 331 2.0 6.0 0.00 0.00 0.00 70 1003.8
20260506183016 69 208 1.0 4.0 0.00 0.00 0.00 67 1003.8
20260506181518 71 123 2.0 14.0 0.00 0.00 0.00 60 1003.7
20260506180022 72 257 2.0 16.0 0.00 0.00 0.00 57 1003.7
20260506174523 72 182 3.0 11.0 0.00 0.00 0.00 55 1003.7
20260506173015 73 226 5.0 15.0 0.00 0.00 0.00 54 1003.9
20260506171522 73 246 2.0 8.0 0.00 0.00 0.00 54 1003.8
20260506170011 73 170 3.0 16.0 0.00 0.00 0.00 55 1004.0
20260506164508 72 211 3.0 9.0 0.00 0.00 0.00 57 1004.4
20260506163005 71 156 4.0 11.0 0.00 0.00 0.00 58 1004.5
20260506161506 71 225 3.0 10.0 0.00 0.00 0.00 60 1004.7
20260506160002 71 259 3.0 11.0 0.00 0.00 0.00 59 1005.0
20260506154501 71 202 2.0 11.0 0.00 0.00 0.00 59 1005.2
20260506153058 71 308 3.0 11.0 0.00 0.00 0.00 59 1005.5
20260506151558 71 134 3.0 10.0 0.00 0.00 0.00 60 1005.7
20260506150057 71 148 3.0 8.0 0.00 0.00 0.00 61 1005.8
20260506144601 70 247 2.0 8.0 0.00 0.00 0.00 64 1006.1
20260506143052 70 182 3.0 8.0 0.00 0.00 0.00 63 1005.8
20260506141551 70 213 2.0 11.0 0.00 0.00 0.00 64 1005.7
20260506140049 69 221 4.0 9.0 0.00 0.00 0.00 65 1005.9
20260506134545 68 184 1.0 8.0 0.00 0.00 0.00 69 1005.9
20260506133042 66 208 4.0 10.0 0.00 0.00 0.00 70 1006.3
20260506131548 66 204 2.0 9.0 0.00 0.00 0.00 71 1006.5
20260506130038 65 197 1.0 10.0 0.00 0.00 0.00 72 1006.4
20260506124536 65 173 1.0 6.0 0.00 0.00 0.00 73 1006.4
20260506123032 64 178 2.0 10.0 0.00 0.00 0.00 75 1006.5
20260506121530 63 244 3.0 8.0 0.00 0.00 0.00 75 1006.6
20260506120030 62 210 2.0 11.0 0.00 0.00 0.00 78 1006.5
20260506114536 61 141 2.0 12.0 0.00 0.00 0.00 78 1006.7
20260506113027 61 207 2.0 8.0 0.00 0.00 0.00 78 1006.8
20260506111525 61 168 2.0 10.0 0.00 0.00 0.00 78 1006.9
20260506110027 61 241 2.0 9.0 0.00 0.00 0.00 80 1006.7
20260506104525 60 135 2.0 9.0 0.00 0.00 0.00 80 1006.8
20260506103022 59 194 2.0 8.0 0.00 0.00 0.00 80 1006.8
20260506101520 60 196 1.0 6.0 0.00 0.00 0.00 79 1006.8
20260506100023 59 155 2.0 7.0 0.00 0.00 0.00 79 1006.6
20260506094517 59 206 3.0 7.0 0.00 0.00 0.00 79 1006.7
20260506093015 59 111 2.0 9.0 0.00 0.00 0.00 78 1006.5
20260506091518 60 166 1.0 5.0 0.00 0.00 0.00 78 1006.7
20260506090013 60 206 2.0 8.0 0.00 0.00 0.00 77 1006.6
20260506084511 60 172 1.0 6.0 0.00 0.00 0.00 77 1006.7
20260506083009 60 201 2.0 8.0 0.00 0.00 0.00 76 1006.7
20260506081509 61 217 2.0 8.0 0.00 0.00 0.00 75 1006.7
20260506073100 62 213 3.0 6.0 0.00 0.00 0.00 72 1006.5
20260506071601 62 181 3.0 7.0 0.00 0.00 0.00 71 1006.4
20260506061554 63 217 1.0 10.0 0.00 0.00 0.00 68 1006.1